Showing default

GALILEO 18 (26E), 41862

Orbit data source: Space-Track

GALILEO 18 (26E), 41862 is a payload satellite owned by GNSS Agency (ESA) that was launched on Thu, 17 Nov 2016 UTC via an ARIANE 5ES launch vehicle from the French Guiana (FRGUI). Payloads include a variety of satellites, spacecraft, and rockets equipped with specific instruments for various scientific and technological missions. These include communications satellites like Starlink; space stations such as the ISS; scientific satellites like the Hubble; Earth observation satellites from companies like Planet Labs, Umbra, and HawkEye 360; GPS; miniature CubeSats for education and research; and military/defense satellites.

Loading next visibility...
GALILEO 18 (26E) details
Identifier
41862, 2016-069D
Orbit
Active
Last TLE update1 day ago
Origin
Flag of ESAGNSS Agency (ESA)
ManufacturerOHB
MissionOperational Civil Navigation
Bus & MotorGALILEOSAT, AOCS
Mass738 kg wet, 700 kg dry
Launch date (UTC)
2016-11-17 (8 years ago)
Launch vehicle
ARIANE 5ES
Launch site
French Guiana (FRGUI)
Object type
Payload
Rocket body
Debris
Shape & HBRBox + 2 Pan, 14.71 m
Radar Cross Section9.223 m², Large (>1 m²)

Expand to show TLE details & history

TLE from 1 day ago
0 GALILEO 18 (26E)
1 41862U 16069D   24360.62966627  .00000010  00000-0  00000-0 0  9993
2 41862  55.1828 116.0051 0001823 265.1904  94.7560  1.70474931 50469
Epoch: 2024-12-25T15:06Z
Definitive object data (Epoch: 2024-12-25T15:06:43.165Z)
Latitude0.00004°
Longitude154.69453°
Altitude23,222.795 km
Speed3.67 km/s
True Right ascension07h 43m 58s
True Declination0° 00' 00"
Sunlit
Object was in daylight at TLE epoch
Visualization TLE readout
Latitude-46.67357°
Longitude22.0565°
Altitude23,233.724 km
Speed3.67 km/s
Apparent Right ascension23h 27m 54s
Apparent Declination-46° 54' 60"
Sunlit
Object is in daylight
Visualization observer readout
Local Sidereal Time14:01:45
Azimuth117.054° SE
Elevation-61.507°
Doppler factor1
Orbital elements
Apogee altitude23,227.473 km
Perigee altitude23,216.681 km
Semi-major axis29,600.214 km
Eccentricity0.0001823
Inclination55.1828°
RAAN116.0051°
Arg. of periapsis265.1904°
True anomaly94.77682°
Mean anomaly94.756°
Eccentric anomaly94.76641°
Mean motion0.42619 °/min
BSTARUnknown
Orbital period844.7 mins
Loading maneuver chart data...
Loading historical data...
Loading historical data...
Loading historical data...
Loading historical data...
Loading historical data...
Loading historical data...
Loading historical data...

GALILEO 18 (26E) Visibility forecast

Observer location: undefined°, undefined

Span
Click to sort rows by Start time (UTC) header in descending order
Start Az.
Max El. time (UTC)
Max El. Az.
Max El.
End time (UTC)
End Az.
394 mins2024-12-27 08:05:52.871Z195.877° SSW2024-12-27 11:34:52.871Z305.84° NW44.673°2024-12-27 14:39:52.871Z78.31° E
|